This demonstration page uses our WeatherBlox Daily Observations layout. Learn more.

Left ArrowRight Arrow

39.12711, -84.51439

Hourly Observations for July 6, 2018

Temp ( °F °C ) Dew Point ( °F °C ) Humidity (%) Winds ( mph kmh ) Pressure ( in mb ) Visibility ( mi km ) Precip ( " mm )
12:53 am 00:53 Clear 79 26.1 71 21.7 77 77 WNW 6 9 30.21 1023 10 16 0.00 0.00
1:53 am 01:53 Clear 75 23.9 71 21.7 88 88 Calm 30.20 1023 10 16 0.00 0.00
2:53 am 02:53 Clear 74 23.3 72 22.2 94 94 Calm 30.20 1023 10 16 0.00 0.00
3:53 am 03:53 Clear 76 24.4 72 22.2 88 88 WNW 7 11 30.20 1023 10 16 0.00 0.00
4:53 am 04:53 Clear 75 23.9 72 22.2 90 90 W 5 7 30.20 1023 10 16 0.00 0.00
5:53 am 05:53 Mostly Clear 75 23.9 72 22.2 90 90 Calm 30.21 1023 10 16 0.00 0.00
6:53 am 06:53 Sunny 75 23.9 72 22.2 90 90 NW 3 6 30.21 1023 10 16 0.00 0.00
7:53 am 07:53 Sunny 76 24.4 72 22.2 88 88 N 7 11 30.22 1023 10 16 0.00 0.00
8:53 am 08:53 Partly Cloudy 77 25 73 22.8 88 88 N 8 13 30.22 1023 10 16 0.00 0.00
9:10 am 09:10 Cloudy 78 25.6 73 22.8 85 85 NNE 7 11 30.21 1023 10 16 0.00 0.00
9:53 am 09:53 Cloudy 80 26.7 74 23.3 82 82 NNE 8 13 30.22 1023 10 16 0.00 0.00
10:53 am 10:53 Cloudy 79 26.1 73 22.8 82 82 NE 7 11 30.24 1024 10 16 0.00 0.00
11:22 am 11:22 Cloudy with Light Rain 77 25 72 22.2 85 85 NE 14 22 30.24 1024 7 11 0.00 0.03
11:53 am 11:53 Cloudy 77 25 65 18.3 66 66 NE 16 26 30.26 1025 10 16 0.00 0.03
12:53 pm 12:53 Cloudy 78 25.6 66 18.9 67 67 NE 9 15 30.27 1025 10 16 0.00 0.00
1:53 pm 13:53 Mostly Cloudy 80 26.7 66 18.9 62 62 NNE 14 22 30.25 1024 10 16 0.00 0.00
2:53 pm 14:53 Mostly Cloudy 82 27.8 66 18.9 58 58 ENE 7 11 30.23 1024 10 16 0.00 0.00
3:53 pm 15:53 Partly Cloudy 84 28.9 67 19.4 57 57 NNE 10 17 30.20 1023 10 16 0.00 0.00
4:53 pm 16:53 Partly Cloudy 85 29.4 67 19.4 55 55 NNE 16 26 30.19 1022 10 16 0.00 0.00
5:53 pm 17:53 Mostly Sunny 83 28.3 63 17.2 51 51 ENE 13 20 30.19 1022 10 16 0.00 0.00
6:53 pm 18:53 Sunny 81 27.2 61 16.1 51 51 NE 13 20 30.19 1022 10 16 0.00 0.00
7:53 pm 19:53 Sunny 78 25.6 60 15.6 54 54 NE 13 20 30.20 1023 10 16 0.00 0.00
8:53 pm 20:53 Sunny 73 22.8 55 12.8 53 53 NE 10 17 30.22 1023 10 16 0.00 0.00
9:53 pm 21:53 Clear 70 21.1 56 13.3 61 61 NNE 8 13 30.24 1024 10 16 0.00 0.00
10:53 pm 22:53 Clear 69 20.6 56 13.3 63 63 NE 9 15 30.27 1025 10 16 0.00 0.00
11:53 pm 23:53 Clear 66 18.9 55 12.8 68 68 ENE 5 7 30.27 1025 10 16 0.00 0.00

Powered by AerisWeather